GW2090 Weather Reports


time (UTC)temp
C
wind
direction
speed
KPH
gust
KPH
rain 1hr
cm
rain 24hr
cm
rain mn
cm
humidity
%
barometer
mb
20260505011556 13 360 1.6 8.0 0.00 0.00 0.00 59 1007.0
20260505010115 13 360 0.0 3.2 0.00 0.00 0.00 59 1006.8
20260505004555 14 0 0.0 0.0 0.00 0.00 0.00 57 1006.5
20260505003059 15 360 1.6 4.8 0.00 0.00 0.00 53 1006.2
20260505001552 16 360 1.6 3.2 0.00 0.00 0.00 47 1005.9
20260505000052 17 0 0.0 0.0 0.00 0.00 0.00 41 1005.7
20260504234551 18 0 0.0 4.8 0.00 0.00 0.00 40 1005.6
20260504233055 19 360 0.0 12.9 0.00 0.00 0.00 37 1005.6
20260504231557 20 360 1.6 16.1 0.00 0.00 0.00 36 1005.3
20260504230053 20 360 3.2 14.5 0.00 0.00 0.00 35 1005.1
20260504224554 20 360 3.2 19.3 0.00 0.00 0.00 34 1005.0
20260504223101 20 360 3.2 20.9 0.00 0.00 0.00 34 1004.9
20260504221602 21 231 9.7 27.4 0.00 0.00 0.00 33 1004.8
20260504220057 21 239 6.4 25.7 0.00 0.00 0.00 33 1004.8
20260504214600 21 280 11.3 25.7 0.00 0.00 0.00 32 1004.8
20260504213103 21 360 6.4 19.3 0.00 0.00 0.00 35 1004.7
20260504211551 21 360 8.0 24.1 0.00 0.00 0.00 33 1004.6
20260504210051 21 360 11.3 27.4 0.00 0.00 0.00 34 1004.5
20260504204556 21 360 9.7 33.8 0.00 0.00 0.00 33 1004.6
20260504203054 21 360 8.0 30.6 0.00 0.00 0.00 35 1004.6
20260504201554 21 360 9.7 25.7 0.00 0.00 0.00 35 1004.7
20260504200055 21 360 8.0 24.1 0.00 0.00 0.00 37 1004.6
20260504194559 20 360 9.7 24.1 0.00 0.00 0.00 37 1004.7
20260504193103 20 360 8.0 19.3 0.00 0.00 0.00 39 1004.8
20260504191602 19 360 11.3 30.6 0.00 0.00 0.00 40 1004.9
20260504190053 18 360 3.2 16.1 0.00 0.00 0.00 40 1005.2
20260504184556 18 360 3.2 20.9 0.00 0.00 0.00 40 1005.3
20260504183057 18 360 9.7 29.0 0.00 0.00 0.00 38 1005.3
20260504181559 19 360 9.7 30.6 0.00 0.00 0.00 36 1005.1
20260504180054 19 360 9.7 32.2 0.00 0.00 0.00 36 1005.2
20260504174550 19 360 9.7 32.2 0.00 0.00 0.00 35 1005.0
20260504173054 20 360 14.5 35.4 0.00 0.00 0.00 35 1005.0
20260504171558 19 360 16.1 43.5 0.00 0.00 0.00 33 1005.0
20260504150111 17 360 4.8 25.7 0.00 0.00 0.00 44 1006.4
20260504081554 3 250 3.2 6.4 0.00 0.00 0.00 69 1008.4
20260504080110 3 248 1.6 6.4 0.00 0.00 0.00 68 1008.2
20260504044552 2 232 1.6 6.4 0.00 0.00 0.00 70 1008.0
20260504043051 3 232 1.6 4.8 0.00 0.00 0.00 69 1008.0
20260504041549 3 232 0.0 3.2 0.00 0.00 0.00 68 1007.9
20260504040114 3 0 0.0 4.8 0.00 0.00 0.00 68 1007.9
20260504034550 3 225 1.6 4.8 0.00 0.00 0.00 68 1007.8
20260504033050 3 0 0.0 3.2 0.00 0.00 0.00 68 1007.6
20260504031556 3 0 0.0 3.2 0.00 0.00 0.00 68 1007.7
20260504030050 3 0 0.0 0.0 0.00 0.00 0.00 67 1007.6
20260504024550 4 0 0.0 0.0 0.00 0.00 0.00 65 1007.6
20260504023100 5 0 0.0 0.0 0.00 0.00 0.00 63 1007.6
20260504021554 5 0 0.0 0.0 0.00 0.00 0.00 61 1007.7
20260504020048 5 0 0.0 0.0 0.00 0.00 0.00 60 1007.6
20260504014601 6 0 0.0 3.2 0.00 0.03 0.00 58 1007.5
20260504013051 6 0 0.0 3.2 0.00 0.03 0.00 57 1007.5